Погода в Бориславе

Украина / Львовская область     49°17′21″N   23°25′08″E
темп.,
°C
ветер,
м/с
пор.,
м/с
влажн.,
%
обл.,
%
осадки,
мм/ч
давл.,
гПа
погр.,
м
27 сентября, пн
пн2700:00+12ююв119228 0.0 102214
03:00+11юв119684 0.0 102216
06:00+10юв229774 0.0 102124
09:00+12вюв249439 0.0 1021220
12:00+16в467564 0.0 1021831
15:00+17вюв456464 0.0 10201049
18:00+16в377040 0.0 1019513
21:00+10вюв38856 0.0 1021192
28 сентября, вт
вт2800:00+8вюв38815 0.0 1021237
03:00+6вюв25860 0.0 1022139
06:00+5вюв24915 0.0 1022116
09:00+7вюв36805 0.0 1022256
12:00+12вюв58625 0.0 1022736
15:00+15вюв575513 0.0 10221103
18:00+13в4865100 0.0 1023727
21:00+9в31179100 0.0 1025350
29 сентября, ср
ср2900:00+7вюв388390 0.0 1026194
03:00+5вюв278777 0.0 1026150
06:00+5вюв268898 0.0 1026158
09:00+7вюв378025 0.0 1026237
12:00+13вюв57596 0.0 1025659
15:00+16вюв56525 0.0 1024918
18:00+14вюв386216 0.0 1024417
21:00+9юв37725 0.0 1025160
30 сентября, чт
чт3000:00+7ююв24795 0.0 102671
03:00+7ююв229049 0.0 102629
06:00+8ююв2290100 0.0 102629
09:00+11ююв1179100 0.0 102657
12:00+13в1170100 0.0 1027242
15:00+16св1162100 0.0 1027657
18:00+13с2279100 0.0 102765
21:00+9зсз2192100 0.0 102822
1 октября, пт
пт100:00+9зюз1193100 0.0 102910
03:00+9ссз1190100 0.0 102911
06:00+7зюз1195100 0.0 102910
09:00+10ююв118649 0.0 102882
12:00+15в226428 0.0 1027622
15:00+17в326120 0.0 1026909
18:00+14вюв256983 0.0 1025215
21:00+9ююв2471100 0.0 102664